Content
SEND FEEDBACK

Daily
Averages
Monthly
Summary
United States of America

JEWELL, OHIO


Home > North America > United States > Ohio
Elevation: 688 feet     Latitude: 41 16N     Longitude: 084 22W

WEATHER
 
SELECT A DAY
Number of Records: 188,493;   Date Range: 1/7/98 - 10/22/14
 
SHARE

PRINT THIS DATA

[ ← Previous Day ]
WEATHER ALMANAC - FEBRUARY 13, 2013
[ Next Day → ]
[ °C ]   °F
Weather ElementAverageHighLow
Temperature30.8 °F37 °F (3:53 pm)26.6 °F (8:02 am)
Dewpoint23.3 °F28 °F (11:53 pm)19.4 °F (8:02 am)
Humidity73.6 %85 % (10:53 pm)65 % (3:53 pm)
Barometer29.84 in29.95 in (1:53 am)29.77 in (4:53 pm)
Wind Speed4.2 mph9.2 mph (11:53 pm)
Weather ElementAverage
Visibility9.6 mi
Wind DirectionESE (127.8 °)

Weather ElementTotal
Precipitation---
Heating Degree Days33.2 (Base 65)
Averaged from 27 records on February 13, 2013
WEATHER CONDITIONS BREAKOUT
WIND DIRECTION BREAKOUT
WEATHER BY HOUR - FEBRUARY 13, 2013
[ °C ]   °F
Local TimeTemperatureDewpointHumidityBarometerVisibilityWind DirectionWind SpeedGust SpeedPrecipitationEventsConditions
1:53 AM28.9 °F21.9 °F75 %29.95 in10.0 miNNW (340°)4.6 mphOvercast
2:53 AM28.9 °F21.0 °F72 %29.94 in10.0 miCalmOvercast
3:53 AM28.9 °F21.0 °F72 %29.92 in10.0 miNNW (330°)3.5 mphOvercast
4:53 AM28.0 °F21.0 °F75 %29.91 in10.0 miCalmOvercast
5:53 AM28.0 °F21.0 °F75 %29.90 in10.0 miNorth (10°)3.5 mphOvercast
6:53 AM28.0 °F21.0 °F75 %29.88 in10.0 miNNE (20°)3.5 mphOvercast
7:53 AM27.0 °F19.9 °F75 %29.87 in10.0 miNE (50°)3.5 mphOvercast
8:02 AM26.6 °F19.4 °F74 %29.84 in10.0 miNE (40°)4.6 mphOvercast
8:53 AM28.0 °F21.0 °F75 %29.86 in10.0 miEast (100°)3.5 mphOvercast
9:53 AM28.0 °F21.0 °F75 %29.88 in10.0 miSouth (170°)5.8 mphOvercast
10:53 AM28.9 °F21.0 °F72 %29.87 in8.0 miWSW (250°)3.5 mphOvercast
11:44 AM28.4 °F21.2 °F74 %29.83 in10.0 miVariable3.5 mphScattered Clouds
11:53 AM28.9 °F21.0 °F72 %29.86 in10.0 miCalmPartly Cloudy
12:11 PM30.2 °F21.2 °F69 %29.82 in10.0 miVariable3.5 mphMostly Cloudy
12:51 PM32.0 °F24.8 °F75 %29.81 in10.0 miWSW (240°)6.9 mphScattered Clouds
12:53 PM32.0 °F23.0 °F69 %29.83 in10.0 miSW (230°)6.9 mphScattered Clouds
1:53 PM34.0 °F25.0 °F70 %29.81 in9.0 miSSW (200°)4.6 mphPartly Cloudy
2:53 PM35.1 °F25.0 °F67 %29.78 in9.0 miCalmClear
3:53 PM37.0 °F26.1 °F65 %29.78 in10.0 miVariable5.8 mphClear
4:53 PM37.0 °F27.0 °F67 %29.77 in10.0 miSouth (180°)6.9 mphClear
5:53 PM35.1 °F26.1 °F70 %29.79 in10.0 miSouth (180°)4.6 mphClear
6:53 PM33.1 °F26.1 °F75 %29.80 in10.0 miSouth (170°)4.6 mphClear
7:53 PM33.1 °F26.1 °F75 %29.81 in9.0 miSouth (180°)4.6 mphClear
8:53 PM30.9 °F25.0 °F79 %29.82 in8.0 miSouth (180°)4.6 mphClear
9:53 PM32.0 °F27.0 °F82 %29.82 in8.0 miSouth (190°)4.6 mphClear
10:53 PM30.9 °F27.0 °F85 %29.82 in8.0 miSouth (190°)6.9 mphClear
11:53 PM34.0 °F28.0 °F79 %29.82 in10.0 miSSW (200°)9.2 mphOvercast
Hourly data recorded from KDFI, located miles away from Jewell, Ohio







STORIES FROM OUR PARTNERS